Regional Weather Roundup
Issued by NWS

Home | Current Version | Previous Version | Text Only | Print | Product List | Glossary Off
Versions: 1 2 3 4 5 6 7 8 9 10 11 12 13 14 15 16 17 18 19 20 21 22 23 24 25 26 27 28 29 30 31 32 33 34 35 36 37 38 39 40 41 42 43 44 45 46 47 48 49 50

000
ASUS44 KMEG 300810
RWRTN
TENNESSEE HOURLY STATE WEATHER ROUNDUP
NATIONAL WEATHER SERVICE MEMPHIS TN
300 AM CDT SUN AUG 30 2015

TNZ002-004-019-021-049-052-054-088>092-300900-
WEST TENNESSEE

CITY           SKY/WX    TMP DP  RH WIND       PRES   REMARKS
MEMPHIS INTL   CLOUDY    77  69  76 SE6       30.01F
JACKSON        MOCLDY    72  67  84 CALM      30.04F
DYERSBURG      CLOUDY   N/A N/A N/A MISG        N/A
UNION CITY       N/A     73  73 100 S3        30.03S
PARIS          PTCLDY    70  66  88 CALM      30.06S
LEXINGTON      CLEAR     68  66  94 CALM      30.05S
$$

TNZ008-025-027-028-033-062-065-066-300900-
NORTH MIDDLE TENNESSEE

CITY           SKY/WX    TMP DP  RH WIND       PRES   REMARKS
NASHVILLE      MOCLDY    70  66  87 CALM      30.09F
CLARKSVILLE    MOCLDY    68  67  96 SE6       30.06F
SMYRNA         MOCLDY    69  68  97 CALM      30.10S
COOKEVILLE     PTCLDY    70  68  94 CALM      30.11S
CROSSVILLE     CLOUDY    71  63  75 CALM      30.16F
$$

TNZ061-075-076-078-094-096-097-300900-
SOUTH MIDDLE TENNESSEE

CITY           SKY/WX    TMP DP  RH WIND       PRES   REMARKS
FAYETTEVILLE     N/A     66  66 100 CALM      30.10F
TULLAHOMA      MOCLDY    70  66  88 SE3       30.12F
WINCHESTER     PTCLDY    70  66  88 CALM      30.12S
MCMINNVILLE    MOCLDY    68  68 100 CALM      30.12S
COLUMBIA       CLEAR     66  66 100 CALM      30.07S
SHELBYVILLE    CLOUDY    70  70 100 SE6       30.10F
$$

TNZ017-018-042-046-047-300900-
NORTHEAST TENNESSEE

CITY           SKY/WX    TMP DP  RH WIND       PRES   REMARKS
TRI CITIES     CLOUDY    65  63  93 CALM      30.15F
ELIZABETHTON   SUNNY     64  59  82 CALM      30.16F
$$

TNZ012-013-036-069-073-074-300900-
CENTRAL EAST TENNESSEE

CITY           SKY/WX    TMP DP  RH WIND       PRES   REMARKS
KNOXVILLE      CLOUDY    71  65  81 CALM      30.12R
OAK RIDGE      CLOUDY    72  66  81 CALM      30.13S
GATLINBURG     SUNNY     66  63  88 CALM      30.13S
MORRISTOWN     SUNNY     66  64  94 CALM      30.15S
$$

TNZ083-085-099-300900-
SOUTHEAST TENNESSEE

CITY           SKY/WX    TMP DP  RH WIND       PRES   REMARKS
CHATTANOOGA    CLOUDY    72  68  87 CALM      30.12S
$$

SKY/WX REPORTED AS FAIR MEANS FEW OR NO CLOUDS BELOW
12 THOUSAND FEET.




USA.gov is the U.S. government's official web portal to all federal, state and local government web resources and services.